• In Hungary
  • List of Countries
  • For 7 days
  • Water Temperature
  • Satellite Maps
  • Weather Map
  • News
  • Weather Widgets
  • user-avatar
    Login

    Hourly Weather Ogbomosho

    Today, 15 November, Thursday

    Time Temperature Precipitation Wind Pressure Humidity
    00:00 +26°C° 0 mm 1 mps 730 mmHg 75%
    01:00 +26°C° 0 mm 1 mps 730 mmHg 81%
    02:00 +26°C° 0 mm 1 mps 730 mmHg 87%
    03:00 +26°C° 0 mm 1 mps 730 mmHg 92%
    04:00 +26°C° 0 mm 1 mps 730 mmHg 93%
    05:00 +26°C° 0 mm 1 mps 730 mmHg 94%
    06:00 +26°C° 0 mm 1 mps 730 mmHg 93%
    07:00 +27°C° 0 mm 1 mps 730 mmHg 84%
    08:00 +29°C° 0 mm 1 mps 731 mmHg 75%
    09:00 +31°C° 0 mm 1 mps 731 mmHg 66%
    10:00 +33°C° 0 mm 1 mps 731 mmHg 55%
    11:00 +36°C° 0 mm 1 mps 730 mmHg 45%
    12:00 +35°C° 0 mm 0 mps 730 mmHg 44%
    13:00 +35°C° 0 mm 0 mps 730 mmHg 42%
    14:00 +34°C° 0 mm 0 mps 729 mmHg 40%
    15:00 +36°C° 0 mm 1 mps 729 mmHg 38%
    16:00 +34°C° 0 mm 1 mps 729 mmHg 41%
    17:00 +33°C° 0 mm 1 mps 729 mmHg 45%
    18:00 +31°C° 0 mm 1 mps 729 mmHg 48%
    19:00 +30°C° 0 mm 1 mps 729 mmHg 54%
    20:00 +30°C° 0 mm 1 mps 730 mmHg 60%
    21:00 +29°C° 0 mm 2 mps 730 mmHg 65%
    22:00 +28°C° 0 mm 2 mps 730 mmHg 71%
    23:00 +27°C° 0 mm 2 mps 730 mmHg 77%

    Tomorrow, 16 November, Friday

    Time Temperature Precipitation Wind Pressure Humidity
    00:00 +27°C° 0 mm 2 mps 731 mmHg 84%
    01:00 +27°C° 0 mm 2 mps 730 mmHg 85%
    02:00 +26°C° 0 mm 2 mps 730 mmHg 86%
    03:00 +26°C° 0 mm 2 mps 730 mmHg 87%
    04:00 +26°C° 0 mm 2 mps 730 mmHg 89%
    05:00 +26°C° 0 mm 1 mps 731 mmHg 90%
    06:00 +26°C° 0 mm 1 mps 731 mmHg 91%
    07:00 +27°C° 0 mm 1 mps 731 mmHg 82%
    08:00 +29°C° 0 mm 1 mps 732 mmHg 72%
    09:00 +31°C° 0 mm 2 mps 733 mmHg 63%
    10:00 +33°C° 0 mm 1 mps 732 mmHg 54%
    11:00 +36°C° 0 mm 1 mps 732 mmHg 44%
    12:00 +36°C° 0 mm 0 mps 731 mmHg 35%
    13:00 +36°C° 0 mm 0 mps 731 mmHg 33%
    14:00 +36°C° 0 mm 0 mps 730 mmHg 32%
    15:00 +35°C° 0 mm 0 mps 729 mmHg 30%
    16:00 +34°C° 0 mm 0 mps 729 mmHg 35%
    17:00 +34°C° 0 mm 1 mps 729 mmHg 39%
    18:00 +32°C° 0 mm 1 mps 729 mmHg 43%
    19:00 +31°C° 0 mm 1 mps 730 mmHg 48%
    20:00 +30°C° 0 mm 2 mps 730 mmHg 52%
    21:00 +29°C° 0 mm 2 mps 731 mmHg 57%
    22:00 +29°C° 0 mm 2 mps 731 mmHg 66%
    23:00 +28°C° 0 mm 2 mps 731 mmHg 75%

    Day after tomorrow, 17 November, Saturday

    Time Temperature Precipitation Wind Pressure Humidity
    00:00 +27°C° 0 mm 3 mps 731 mmHg 85%
    01:00 +27°C° 0 mm 2 mps 730 mmHg 87%
    02:00 +26°C° 0 mm 2 mps 730 mmHg 88%
    03:00 +26°C° 0 mm 2 mps 730 mmHg 90%
    04:00 +26°C° 0 mm 2 mps 730 mmHg 91%
    05:00 +26°C° 0 mm 2 mps 731 mmHg 91%
    06:00 +26°C° 0 mm 2 mps 731 mmHg 92%
    07:00 +27°C° 0 mm 2 mps 732 mmHg 84%
    08:00 +29°C° 0 mm 2 mps 732 mmHg 75%
    09:00 +31°C° 0 mm 3 mps 732 mmHg 66%
    10:00 +34°C° 0 mm 2 mps 732 mmHg 58%
    11:00 +36°C° 0 mm 2 mps 731 mmHg 49%
    12:00 +36°C° 0 mm 1 mps 730 mmHg 41%
    13:00 +37°C° 0 mm 1 mps 730 mmHg 38%
    14:00 +37°C° 0 mm 1 mps 729 mmHg 36%
    15:00 +37°C° 0 mm 1 mps 728 mmHg 34%
    16:00 +35°C° 0 mm 1 mps 729 mmHg 39%
    17:00 +35°C° 0 mm 2 mps 729 mmHg 44%
    18:00 +32°C° 0 mm 2 mps 729 mmHg 49%
    19:00 +31°C° 0.1 mm 3 mps 730 mmHg 60%
    20:00 +29°C° 0.1 mm 3 mps 730 mmHg 70%
    21:00 +28°C° 0.1 mm 4 mps 731 mmHg 81%
    22:00 +28°C° 0 mm 3 mps 731 mmHg 83%
    23:00 +27°C° 0 mm 3 mps 731 mmHg 86%

    18 November, Sunday

    Time Temperature Precipitation Wind Pressure Humidity
    00:00 +27°C° 0 mm 3 mps 730 mmHg 88%
    01:00 +27°C° 0 mm 3 mps 730 mmHg 88%
    02:00 +27°C° 0 mm 3 mps 730 mmHg 88%
    03:00 +27°C° 0 mm 3 mps 729 mmHg 88%
    04:00 +27°C° 0 mm 3 mps 730 mmHg 88%
    05:00 +27°C° 0 mm 3 mps 730 mmHg 87%
    06:00 +27°C° 0 mm 2 mps 731 mmHg 87%
    07:00 +28°C° 0 mm 3 mps 731 mmHg 80%
    08:00 +29°C° 0 mm 3 mps 732 mmHg 74%
    09:00 +31°C° 0 mm 3 mps 732 mmHg 67%
    10:00 +33°C° 0.1 mm 3 mps 731 mmHg 60%
    11:00 +35°C° 0.1 mm 2 mps 731 mmHg 54%
    12:00 +36°C° 0.1 mm 2 mps 730 mmHg 47%
    13:00 +35°C° 0.3 mm 1 mps 729 mmHg 47%
    14:00 +35°C° 0.3 mm 1 mps 729 mmHg 46%
    15:00 +35°C° 0.3 mm 1 mps 728 mmHg 46%
    16:00 +33°C° 0 mm 1 mps 728 mmHg 51%
    17:00 +32°C° 0 mm 1 mps 728 mmHg 56%
    18:00 +31°C° 0 mm 2 mps 728 mmHg 60%
    19:00 +30°C° 0.1 mm 2 mps 729 mmHg 66%
    20:00 +29°C° 0.1 mm 2 mps 729 mmHg 71%
    21:00 +28°C° 0.1 mm 3 mps 730 mmHg 76%
    22:00 +28°C° 0.1 mm 2 mps 730 mmHg 80%
    23:00 +27°C° 0.1 mm 2 mps 730 mmHg 83%

    19 November, Monday

    Time Temperature Precipitation Wind Pressure Humidity
    00:00 +27°C° 0.1 mm 2 mps 730 mmHg 87%
    01:00 +26°C° 0.1 mm 2 mps 729 mmHg 88%
    02:00 +26°C° 0.1 mm 2 mps 729 mmHg 90%
    03:00 +26°C° 0.1 mm 2 mps 729 mmHg 91%
    04:00 +26°C° 0.1 mm 2 mps 729 mmHg 92%
    05:00 +25°C° 0.1 mm 2 mps 730 mmHg 92%
    06:00 +25°C° 0.1 mm 2 mps 730 mmHg 92%
    07:00 +27°C° 0 mm 2 mps 730 mmHg 84%
    08:00 +29°C° 0 mm 2 mps 731 mmHg 77%
    09:00 +30°C° 0 mm 3 mps 731 mmHg 69%
    10:00 +32°C° 0 mm 2 mps 731 mmHg 61%
    11:00 +35°C° 0 mm 2 mps 730 mmHg 53%
    12:00 +36°C° 0 mm 1 mps 730 mmHg 45%
    13:00 +36°C° 0 mm 1 mps 729 mmHg 44%
    14:00 +36°C° 0 mm 1 mps 728 mmHg 43%
    15:00 +35°C° 0 mm 1 mps 728 mmHg 43%
    16:00 +34°C° 0 mm 1 mps 728 mmHg 48%
    17:00 +34°C° 0 mm 2 mps 728 mmHg 53%
    18:00 +31°C° 0 mm 2 mps 729 mmHg 57%
    19:00 +30°C° 0.1 mm 3 mps 729 mmHg 65%
    20:00 +29°C° 0.1 mm 3 mps 730 mmHg 72%
    21:00 +28°C° 0.1 mm 3 mps 730 mmHg 79%
    22:00 +28°C° 0 mm 3 mps 730 mmHg 82%
    23:00 +27°C° 0 mm 3 mps 730 mmHg 84%

    20 November, Tuesday

    Time Temperature Precipitation Wind Pressure Humidity
    00:00 +27°C° 0 mm 3 mps 730 mmHg 87%
    01:00 +27°C° 0 mm 3 mps 730 mmHg 88%
    02:00 +26°C° 0 mm 3 mps 729 mmHg 89%
    03:00 +26°C° 0 mm 3 mps 729 mmHg 90%
    04:00 +26°C° 0 mm 3 mps 730 mmHg 90%
    05:00 +26°C° 0 mm 3 mps 730 mmHg 90%
    06:00 +26°C° 0 mm 3 mps 731 mmHg 90%
    07:00 +27°C° 0 mm 2 mps 731 mmHg 85%
    08:00 +28°C° 0 mm 2 mps 731 mmHg 80%
    09:00 +29°C° 0 mm 2 mps 732 mmHg 75%
    10:00 +31°C° 0 mm 2 mps 731 mmHg 67%
    11:00 +34°C° 0 mm 2 mps 731 mmHg 59%
    12:00 +36°C° 0 mm 2 mps 730 mmHg 51%
    13:00 +36°C° 0.1 mm 2 mps 730 mmHg 49%
    14:00 +35°C° 0.1 mm 1 mps 729 mmHg 46%
    15:00 +35°C° 0.1 mm 1 mps 728 mmHg 44%
    16:00 +34°C° 0.5 mm 2 mps 729 mmHg 52%
    17:00 +32°C° 0.5 mm 2 mps 729 mmHg 61%
    18:00 +30°C° 0.5 mm 2 mps 730 mmHg 69%
    19:00 +29°C° 0.3 mm 2 mps 730 mmHg 74%
    20:00 +28°C° 0.3 mm 2 mps 730 mmHg 78%
    21:00 +28°C° 0.3 mm 2 mps 731 mmHg 82%
    22:00 +27°C° 0 mm 2 mps 730 mmHg 84%
    23:00 +27°C° 0 mm 2 mps 730 mmHg 87%
    Show more